TimeCST,TemperatureF,Dew PointF,Humidity,Sea Level PressureIn,VisibilityMPH,Wind Direction,Wind SpeedMPH,Gust SpeedMPH,PrecipitationIn,Events,Conditions,WindDirDegrees,DateUTC
12:55 AM,46.2,32.2,58,30.22,10.0,NNE,9.2,-,N/A,,Mostly Cloudy,20,2012-11-14 06:55:00
1:55 AM,45.5,34.0,64,30.21,10.0,NNE,8.1,-,N/A,,Mostly Cloudy,30,2012-11-14 07:55:00
2:45 AM,46.4,35.6,66,30.22,10.0,NNE,8.1,-,N/A,,Overcast,20,2012-11-14 08:45:00
2:55 AM,45.7,35.8,68,30.22,10.0,NNE,6.9,-,N/A,,Overcast,20,2012-11-14 08:55:00
3:15 AM,46.4,35.6,66,30.22,10.0,NNE,9.2,-,N/A,,Overcast,20,2012-11-14 09:15:00
3:16 AM,46.4,35.6,66,30.22,10.0,North,9.2,-,N/A,,Overcast,10,2012-11-14 09:16:00
3:25 AM,44.6,37.4,76,30.22,10.0,North,8.1,-,N/A,,Mostly Cloudy,10,2012-11-14 09:25:00
3:40 AM,44.6,37.4,76,30.22,10.0,North,6.9,-,N/A,,Mostly Cloudy,10,2012-11-14 09:40:00
3:55 AM,45.3,37.6,74,30.22,10.0,NNE,9.2,-,N/A,,Mostly Cloudy,30,2012-11-14 09:55:00
4:03 AM,46.4,37.4,71,30.22,10.0,NNE,8.1,-,N/A,,Overcast,30,2012-11-14 10:03:00
4:29 AM,46.4,39.2,76,30.23,10.0,NE,6.9,-,N/A,,Overcast,40,2012-11-14 10:29:00
4:55 AM,46.6,39.7,77,30.23,10.0,NNE,8.1,-,N/A,,Overcast,30,2012-11-14 10:55:00
5:30 AM,46.4,41.0,81,30.24,10.0,NE,5.8,-,N/A,,Overcast,40,2012-11-14 11:30:00
5:55 AM,47.1,41.4,80,30.24,10.0,NE,6.9,-,N/A,,Overcast,40,2012-11-14 11:55:00
6:39 AM,48.2,42.8,82,30.25,10.0,NE,5.8,-,N/A,,Overcast,40,2012-11-14 12:39:00
6:54 AM,48.2,42.8,82,30.25,10.0,NNE,5.8,-,N/A,,Mostly Cloudy,30,2012-11-14 12:54:00
6:55 AM,47.5,42.6,83,30.25,10.0,NE,6.9,-,N/A,,Mostly Cloudy,40,2012-11-14 12:55:00
6:58 AM,48.2,42.8,82,30.25,10.0,NE,5.8,-,N/A,,Mostly Cloudy,40,2012-11-14 12:58:00
7:55 AM,50.2,44.8,82,30.26,10.0,NE,8.1,-,N/A,,Overcast,40,2012-11-14 13:55:00
8:07 AM,50.0,44.6,82,30.26,10.0,NE,10.4,-,N/A,,Overcast,50,2012-11-14 14:07:00
8:55 AM,52.3,46.8,81,30.26,10.0,NE,9.2,-,N/A,,Overcast,50,2012-11-14 14:55:00
9:17 AM,53.6,48.2,82,30.26,10.0,NE,6.9,-,N/A,,Overcast,50,2012-11-14 15:17:00
9:55 AM,55.8,48.7,77,30.26,10.0,NE,11.5,-,N/A,,Overcast,50,2012-11-14 15:55:00
10:23 AM,55.4,50.0,82,30.26,10.0,NE,9.2,-,N/A,,Overcast,50,2012-11-14 16:23:00
10:51 AM,57.2,50.0,77,30.25,10.0,ENE,5.8,-,N/A,,Overcast,70,2012-11-14 16:51:00
10:55 AM,57.2,50.2,77,30.25,10.0,ENE,8.1,-,N/A,,Overcast,60,2012-11-14 16:55:00
11:52 AM,57.2,51.8,82,30.23,10.0,ENE,6.9,-,N/A,Rain,Light Rain,60,2012-11-14 17:52:00
11:55 AM,57.2,51.4,81,30.23,10.0,ENE,6.9,-,N/A,Rain,Light Rain,60,2012-11-14 17:55:00
12:06 PM,57.2,51.8,82,30.24,10.0,NNE,5.8,-,N/A,,Overcast,30,2012-11-14 18:06:00
12:55 PM,58.6,50.9,75,30.21,10.0,NE,6.9,-,N/A,,Overcast,50,2012-11-14 18:55:00
1:33 PM,57.2,51.8,82,30.21,10.0,NE,6.9,-,N/A,Rain,Light Rain,40,2012-11-14 19:33:00
1:50 PM,57.2,51.8,82,30.21,10.0,NE,6.9,-,N/A,,Overcast,40,2012-11-14 19:50:00
1:55 PM,57.2,51.8,82,30.21,10.0,NE,5.8,-,N/A,,Overcast,40,2012-11-14 19:55:00
2:21 PM,57.2,51.8,82,30.21,10.0,ENE,5.8,-,N/A,,Overcast,60,2012-11-14 20:21:00
2:55 PM,56.7,52.0,84,30.21,10.0,North,5.8,-,N/A,,Overcast,10,2012-11-14 20:55:00
3:39 PM,55.4,51.8,88,30.21,10.0,NNE,8.1,-,N/A,,Overcast,30,2012-11-14 21:39:00
3:40 PM,55.4,51.8,88,30.21,10.0,NNE,8.1,-,N/A,,Overcast,30,2012-11-14 21:40:00
3:53 PM,55.4,51.8,88,30.21,10.0,NE,8.1,-,N/A,,Overcast,40,2012-11-14 21:53:00
3:55 PM,55.9,52.0,87,30.21,10.0,NE,6.9,-,N/A,,Overcast,40,2012-11-14 21:55:00
4:39 PM,55.4,51.8,88,30.22,10.0,NNE,6.9,-,N/A,,Overcast,30,2012-11-14 22:39:00
4:55 PM,54.7,52.3,92,30.22,10.0,North,6.9,-,N/A,,Overcast,10,2012-11-14 22:55:00
5:55 PM,53.8,52.0,94,30.23,8.0,NNE,8.1,-,N/A,,Overcast,20,2012-11-14 23:55:00
5:59 PM,53.6,51.8,94,30.23,7.0,NNE,8.1,-,N/A,,Overcast,20,2012-11-14 23:59:00
6:55 PM,52.9,51.4,95,30.25,8.0,NNE,6.9,-,N/A,,Overcast,30,2012-11-15 00:55:00
7:11 PM,53.6,51.8,94,30.24,6.0,NNE,10.4,-,N/A,,Overcast,20,2012-11-15 01:11:00
7:48 PM,51.8,50.0,94,30.24,7.0,NNE,9.2,-,N/A,,Overcast,30,2012-11-15 01:48:00
7:55 PM,52.2,50.7,95,30.25,7.0,NNE,9.2,-,N/A,,Overcast,30,2012-11-15 01:55:00
8:20 PM,51.8,50.0,94,30.25,10.0,NE,10.4,-,N/A,,Overcast,40,2012-11-15 02:20:00
8:35 PM,51.8,50.0,94,30.25,10.0,NE,11.5,-,N/A,,Overcast,40,2012-11-15 02:35:00
8:44 PM,51.8,50.0,94,30.25,10.0,NNE,8.1,-,N/A,,Overcast,30,2012-11-15 02:44:00
8:55 PM,51.8,49.8,93,30.25,10.0,NE,9.2,-,N/A,,Overcast,40,2012-11-15 02:55:00
9:55 PM,51.3,49.1,92,30.24,10.0,NE,9.2,-,N/A,,Overcast,50,2012-11-15 03:55:00
10:44 PM,51.8,48.2,88,30.23,10.0,NE,6.9,-,N/A,,Overcast,40,2012-11-15 04:44:00
10:55 PM,50.9,48.4,91,30.23,10.0,NE,8.1,-,N/A,,Overcast,50,2012-11-15 04:55:00
11:55 PM,50.4,47.7,90,30.22,10.0,NE,5.8,-,N/A,,Overcast,40,2012-11-15 05:55:00